Weather History for EGNH - November, 2011

Change the Weather History Date:

Friday, November 25, 2011

  Actual Average Record
Temperature  
Mean Temperature 48 °F -  
Max Temperature 50 °F 44 °F 53 °F (2001)
Min Temperature 46 °F 38 °F 28 °F (2013)
Degree Days  
Heating Degree Days 17    
Moisture  
Dew Point 40 °F    
Average Humidity 69    
Maximum Humidity 82    
Minimum Humidity 53    
Precipitation  
Precipitation 0.04 in - - ()
Sea Level Pressure  
Sea Level Pressure 30.12 in    
Wind  
Wind Speed 25 mph ()    
Max Wind Speed 40 mph    
Max Gust Speed 55 mph    
Visibility 6.2 miles    
Events Rain    
Averages and records for this station are not official NWS values.
T = Trace of Precipitation, MM = Missing Value Source: Averaged Metar Reports

Daily Weather History Graph

Daily Weather History Graph

Search for Another Location

Airport or City:

Trip Planner

Search our weather history database for the weather conditions in past years. The results will help you decide how hot, cold, wet, or windy it might be!

Date:

Astronomy

Nov. 25, 2011 Rise Set
Actual Time 7:56 AM GMT 4:01 PM GMT
Civil Twilight 7:15 AM GMT 4:42 PM GMT
Nautical Twilight 6:31 AM GMT 5:26 PM GMT
Astronomical Twilight 5:48 AM GMT 6:08 PM GMT
Moon 8:16 AM GMT (11/25) 4:04 PM GMT (11/25)
Length of Visible Light 9h 27m
Length of Day
8h 05m
New Moon, 0% of the Moon is Illuminated
Nov 25
New Moon
Dec 2
First Quarter
Dec 10
Full
Dec 18
Last Quarter
Dec 24
New

Hourly Weather History & Observations

Time (GMT) Temp. Windchill Dew Point Humidity Pressure Visibility Wind Dir Wind Speed Gust Speed Precip Events Conditions
2:50 AM 50 °F - 43 °F 69%  in - West 20.7 mph - -  
5:50 AM 48 °F - 43 °F 76%  in - West 19.6 mph - -  
6:20 AM 48.2 °F - 41.0 °F 76% 30.04 in 6.2 mi WSW 28.8 mph - N/A   Partly Cloudy
6:50 AM 48.2 °F - 41.0 °F 76% 30.06 in 6.2 mi WSW 24.2 mph - N/A   Partly Cloudy
7:20 AM 48.2 °F - 39.2 °F 71% 30.06 in 6.2 mi WSW 27.6 mph - N/A   Partly Cloudy
7:50 AM 48.2 °F - 39.2 °F 71% 30.06 in 6.2 mi WSW 27.6 mph - N/A Rain Light Rain Showers
8:20 AM 48.2 °F - 39.2 °F 71% 30.06 in 6.2 mi WSW 26.5 mph - N/A Rain Light Rain Showers
8:50 AM 48.2 °F - 39.2 °F 71% 30.06 in 6.2 mi WSW 25.3 mph - N/A   Partly Cloudy
9:20 AM 48.2 °F - 41.0 °F 76% 30.06 in 6.2 mi SW 28.8 mph - N/A   Partly Cloudy
9:50 AM 50.0 °F - 41.0 °F 71% 30.06 in 6.2 mi SW 33.4 mph - N/A   Partly Cloudy
10:20 AM 50.0 °F - 42.8 °F 76% 30.06 in 6.2 mi SW 35.7 mph - N/A   Partly Cloudy
10:50 AM 50.0 °F - 42.8 °F 76% 30.06 in 6.2 mi SW 35.7 mph - N/A Rain Rain Showers
11:20 AM 50.0 °F - 44.6 °F 82% 30.09 in 5.6 mi WSW 36.8 mph 55.2 mph N/A Rain Light Rain Showers
11:50 AM 49 °F - 42 °F 70%  in - WSW 35.7 mph - -  
11:50 AM 50.0 °F - 44.6 °F 82% 30.06 in 6.2 mi WSW 35.7 mph 48.3 mph N/A Rain Rain Showers
12:20 PM 50.0 °F - 41.0 °F 71% 30.09 in 6.2 mi WSW 40.3 mph - N/A   Scattered Clouds
1:20 PM 46.4 °F 36.7 °F 41.0 °F 81% 30.09 in 6.2 mi West 33.4 mph - N/A   Scattered Clouds
1:50 PM 50.0 °F - 39.2 °F 66% 30.12 in 6.2 mi West 38.0 mph - N/A   Scattered Clouds
2:20 PM 48.2 °F - 39.2 °F 71% 30.12 in 6.2 mi WSW 34.5 mph 49.5 mph N/A   Scattered Clouds
2:50 PM 48 °F - 37 °F 56%  in - West 29.9 mph - -  
2:50 PM 48.2 °F - 37.4 °F 66% 30.12 in 6.2 mi West 27.6 mph - N/A   Partly Cloudy
3:20 PM 50.0 °F - 35.6 °F 58% 30.15 in 6.2 mi West 29.9 mph - N/A   Partly Cloudy
4:20 PM 48.2 °F - 37.4 °F 66% 30.18 in 6.2 mi West 29.9 mph 41.4 mph N/A   Partly Cloudy
4:50 PM 48.2 °F - 37.4 °F 66% 30.21 in 6.2 mi West 26.5 mph - N/A   Partly Cloudy
5:20 PM 48.2 °F - 37.4 °F 66% 30.21 in 6.2 mi West 24.2 mph - N/A   Partly Cloudy
5:50 PM 48 °F - 36 °F 53%  in - West 23.0 mph - -  
5:50 PM 48.2 °F - 37.4 °F 66% 30.21 in 6.2 mi West 23.0 mph - N/A   Partly Cloudy
6:50 PM 48.2 °F - 35.6 °F 62% 30.21 in 6.2 mi West 26.5 mph - N/A   Partly Cloudy
7:20 PM 48.2 °F - 39.2 °F 71% 30.21 in - West 25.3 mph - N/A   Clear
7:50 PM 48.2 °F - 37.4 °F 66% 30.24 in - West 25.3 mph - N/A   Clear
8:20 PM 50.0 °F - 37.4 °F 62% 30.24 in - West 21.9 mph - N/A   Clear
8:50 PM 48 °F - 39 °F 63%  in - West 21.9 mph - -  
8:50 PM 50.0 °F - 39.2 °F 66% 30.21 in - West 23.0 mph - N/A   Clear
11:50 PM 50 °F - 44 °F 71%  in - WSW 24.2 mph - -